Location: Table Mountain
(47.2500°N, 120.5778°W)
Time: 14:03:30
(UTC-08:00)

Vanguard 2 - All Passes

Search period start: 22 January 2018 00:00
Search period end: 01 February 2018 00:00
Orbit: 553 x 2939 km, 32.9° (Epoch: 22 January)

Date Brightness Start Highest point End Pass type
(mag) Time Alt. Az. Time Alt. Az. Time Alt. Az.
22 Jan - 03:10:30 10° SSW 03:17:15 29° SSE 03:27:13 10° ESE visible
22 Jan - 05:16:51 10° WSW 05:26:00 41° S 05:39:43 10° ESE visible
22 Jan - 07:25:08 10° WSW 07:35:58 35° SSW 07:50:21 10° SE daylight
22 Jan - 09:36:38 10° WSW 09:45:59 19° SW 09:56:26 10° S daylight
23 Jan - 01:24:38 10° SSE 01:27:37 13° SE 01:31:07 10° ESE visible
23 Jan - 03:27:55 10° SW 03:34:53 32° SSE 03:45:25 10° ESE visible
23 Jan - 05:34:42 10° WSW 05:43:51 39° S 05:57:29 10° ESE visible
23 Jan - 07:43:25 10° WSW 07:53:49 30° SSW 08:07:17 10° SSE daylight
23 Jan - 09:56:59 10° WSW 10:03:36 14° SW 10:10:44 10° SSW daylight
24 Jan - 01:40:48 10° S 01:44:59 17° SE 01:50:23 10° ESE visible
24 Jan - 03:45:29 10° SW 03:52:35 34° SSE 04:03:29 10° ESE visible
24 Jan - 05:52:39 10° WSW 06:01:44 37° S 06:15:03 10° SE visible
24 Jan - 08:01:57 10° WSW 08:11:37 25° SSW 08:23:47 10° SSE daylight
25 Jan - 01:57:40 10° SSW 02:02:27 21° SSE 02:09:01 10° ESE visible
25 Jan - 04:03:10 10° SW 04:10:22 35° S 04:21:26 10° ESE visible
25 Jan - 06:10:42 10° WSW 06:19:37 33° SSW 06:32:25 10° SE visible
25 Jan - 08:20:54 10° WSW 08:29:25 20° SSW 08:39:40 10° S daylight
26 Jan - 02:14:52 10° SSW 02:20:01 24° SSE 02:27:21 10° ESE visible
26 Jan - 04:20:57 10° WSW 04:28:11 35° S 04:39:15 10° ESE visible
26 Jan - 06:28:54 10° WSW 06:37:30 29° SSW 06:49:28 10° SE visible
26 Jan - 08:40:45 10° WSW 08:47:10 15° SSW 08:54:29 10° S daylight
27 Jan - 02:32:19 10° SW 02:37:40 27° SSE 02:45:31 10° ESE visible
27 Jan - 04:38:51 10° WSW 04:46:02 33° S 04:56:54 10° SE visible
27 Jan - 06:47:20 10° WSW 06:55:23 24° SSW 07:06:08 10° SSE visible
28 Jan - 00:45:37 10° S 00:48:07 13° SSE 00:51:02 10° ESE night (unlit)
28 Jan - 02:49:54 10° SW 02:55:23 28° SSE 03:03:31 10° ESE visible
28 Jan - 04:56:51 10° WSW 05:03:55 30° S 05:14:21 10° SE visible
28 Jan - 07:06:09 10° WSW 07:13:15 19° SSW 07:22:15 10° SSE daylight
29 Jan - 01:02:19 10° SSW 01:05:39 16° SSE 01:09:48 10° ESE night (unlit)
29 Jan - 03:07:38 10° SW 03:13:10 28° S 03:21:23 10° ESE visible
29 Jan - 05:15:01 10° WSW 05:21:49 26° SSW 05:31:32 10° SE visible
29 Jan - 07:25:48 10° SW 07:31:06 14° SSW 07:37:20 10° S daylight
30 Jan - 01:19:31 10° SSW 01:23:16 19° SSE 01:28:08 10° ESE visible
30 Jan - 03:25:29 10° SW 03:31:00 27° S 03:39:06 10° SE visible
30 Jan - 05:33:23 10° WSW 05:39:43 22° SSW 05:48:20 10° SSE visible
31 Jan - 01:36:59 10° SSW 01:40:56 21° SSE 01:46:15 10° ESE visible
31 Jan - 03:43:27 10° WSW 03:48:50 25° S 03:56:37 10° SE visible
31 Jan - 05:52:11 10° WSW 05:57:37 17° SSW 06:04:34 10° SSE visible
